WetterOnline ( http://www.wetteronline.de )

Wetter aktuell Geisenheim

Aktuelles Wetter: Geisenheim (110m)

6-stündlich | Neueste Meldungen
Ortszeit Temperatur Wetter
So, 21.10. 14:00 16.0° C wolkenlos
So, 21.10. 8:00 4.4° C wolkenlos
So, 21.10. 2:00 7.9° C wolkenlos
Sa, 20.10. 20:00 11.8° C wolkig
Sa, 20.10. 14:00 15.5° C leicht bewölkt
Sa, 20.10. 8:00 10.0° C wolkenlos
Sa, 20.10. 2:00 12.6° C bedeckt
Fr, 19.10. 20:00 13.1° C wolkenlos
Ortszeit Temperatur Wetter
So, 21.10. 19:30 11.7° C leicht bewölkt
So, 21.10. 19:10 12.0° C leicht bewölkt
So, 21.10. 19:00 12.5° C fast wolkenlos
So, 21.10. 18:50 12.5° C fast wolkenlos
So, 21.10. 18:40 13.1° C leicht bewölkt
So, 21.10. 18:30 14.1° C wolkig
So, 21.10. 18:00 15.5° C leicht bewölkt
So, 21.10. 17:30 16.1° C wolkenlos
So, 21.10. 17:00 16.5° C wolkenlos
So, 21.10. 16:30 16.4° C wolkenlos
Ortszeit Relative Feuchte Sichtweite
So, 21.10. 14:00 48% 60 km
So, 21.10. 8:00 97% 6 km
So, 21.10. 2:00 82% 25 km
Sa, 20.10. 20:00 71% 30 km
Sa, 20.10. 14:00 61% 19 km
Sa, 20.10. 8:00 92% 7 km
Sa, 20.10. 2:00 87% 12 km
Fr, 19.10. 20:00 78% 23 km
Ortszeit Relative Feuchte Sichtweite
So, 21.10. 19:30 64% 50 km
So, 21.10. 19:10 63% -
So, 21.10. 19:00 61% 50 km
So, 21.10. 18:50 61% -
So, 21.10. 18:40 59% -
So, 21.10. 18:30 55% 50 km
So, 21.10. 18:00 50% 50 km
So, 21.10. 17:30 47% 50 km
So, 21.10. 17:00 46% 50 km
So, 21.10. 16:30 44% >70 km
Ortszeit Niederschlagsmenge Niederschlagsart
So, 21.10. 14:00 0.0 l/m2 in 6 Std. -
So, 21.10. 8:00 0.0 l/m2 in 12 Std. -
So, 21.10. 2:00 0.0 l/m2 in 6 Std. -
Sa, 20.10. 20:00 0.0 l/m2 in 12 Std. -
Sa, 20.10. 14:00 0.0 l/m2 in 6 Std. -
Sa, 20.10. 8:00 0.0 l/m2 in 12 Std. -
Sa, 20.10. 2:00 0.0 l/m2 in 6 Std. -
Fr, 19.10. 20:00 0.0 l/m2 in 12 Std. -
Ortszeit Niederschlagsmenge Niederschlagsart
So, 21.10. 19:30 0.0 l/m2 in 1 Std. -
So, 21.10. 19:10 keine Meldung -
So, 21.10. 19:00 0.0 l/m2 in 1 Std. -
So, 21.10. 18:50 keine Meldung -
So, 21.10. 18:40 keine Meldung -
So, 21.10. 18:30 0.0 l/m2 in 1 Std. -
So, 21.10. 18:00 0.0 l/m2 in 1 Std. -
So, 21.10. 17:30 0.0 l/m2 in 1 Std. -
So, 21.10. 17:00 0.0 l/m2 in 1 Std. -
So, 21.10. 16:30 0.0 l/m2 in 1 Std. -
Ortszeit Stärke Spitze Richtung
km/h Bft. km/h Grad Sektor
So, 21.10. 14:00 7 2 18 110° O
So, 21.10. 8:00 4 1 11 210° SW
So, 21.10. 2:00 7 2 25 310° NW
Sa, 20.10. 20:00 4 1 22 100° O
Sa, 20.10. 14:00 11 2 32 360° N
Sa, 20.10. 8:00 6 1 24 340° N
Sa, 20.10. 2:00 7 2 14 270° W
Fr, 19.10. 20:00 11 2 18 350° N
Ortszeit Stärke Spitze Richtung
km/h Bft. km/h Grad Sektor
So, 21.10. 19:30 9 2 11 10° N
So, 21.10. 19:10 11 2 - 20° N
So, 21.10. 19:00 9 2 11 20° N
So, 21.10. 18:50 9 2 - 20° N
So, 21.10. 18:40 7 2 - 20° N
So, 21.10. 18:30 6 1 9 60° NO
So, 21.10. 18:00 7 2 14 80° O
So, 21.10. 17:30 7 2 17 80° O
So, 21.10. 17:00 7 2 18 90° O
So, 21.10. 16:30 7 2 18 50° NO
Ortszeit Untergrenze Bedeckung Gattung
total tief tief mittel hoch
So, 21.10. 14:00 - 0/8 0/8 - - -
So, 21.10. 8:00 - 0/8 0/8 - - -
So, 21.10. 2:00 - 0/8 0/8 - - -
Sa, 20.10. 20:00 8400 m 8/8 0/8 - - -
Sa, 20.10. 14:00 8400 m 8/8 0/8 - - -
Sa, 20.10. 8:00 - 0/8 0/8 - - -
Sa, 20.10. 2:00 1020 m 8/8 8/8 - - -
Fr, 19.10. 20:00 - 0/8 0/8 - - -
Ortszeit Bedeckungsgrad in Achtel und Wolkenuntergrenze
So, 21.10. 19:30 4(10500m)
So, 21.10. 19:10 3(10500m)
So, 21.10. 19:00 1(9000m)
So, 21.10. 18:50 1(9000m)
So, 21.10. 18:40 3(9000m) 4(10500m)
So, 21.10. 18:30 7(10500m) 4(10500m)
So, 21.10. 18:00 7(10500m)
So, 21.10. 17:30 3(10500m)
So, 21.10. 17:00 keine Wolken
So, 21.10. 16:30 keine Wolken
Ortszeit Luftdruck NN (hPa) Tendenz (hPa in 3 Std.)
So, 21.10. 14:00 1029 - 1,9
So, 21.10. 8:00 1030 - 0,3
So, 21.10. 2:00 1031 - 0,2
Sa, 20.10. 20:00 1031 + 1,3
Sa, 20.10. 14:00 1030 + 0,4
Sa, 20.10. 8:00 1028 + 1,3
Sa, 20.10. 2:00 1026 + 0,7
Fr, 19.10. 20:00 1024 + 1,2
Ortszeit Luftdruck NN (hPa) Tendenz (hPa in 3 Std.)
So, 21.10. 19:30 1027 - 0,2
So, 21.10. 19:10 1027 keine Meldung
So, 21.10. 19:00 1027 - 0,7
So, 21.10. 18:50 1027 keine Meldung
So, 21.10. 18:40 1027 keine Meldung
So, 21.10. 18:30 1027 - 1,0
So, 21.10. 18:00 1027 - 1,3
So, 21.10. 17:30 1027 - 1,4
So, 21.10. 17:00 1027 - 1,4
So, 21.10. 16:30 1027 - 1,7
Ortszeit Schneehöhe (cm)
So, 21.10. 14:00 0
So, 21.10. 8:00 0
So, 21.10. 2:00 0
Sa, 20.10. 20:00 0
Sa, 20.10. 14:00 0
Sa, 20.10. 8:00 0
Sa, 20.10. 2:00 0
Fr, 19.10. 20:00 0
Ortszeit Schneehöhe (cm)
So, 21.10. 19:30 0
So, 21.10. 19:10 0
So, 21.10. 19:00 0
So, 21.10. 18:50 0
So, 21.10. 18:40 0
So, 21.10. 18:30 0
So, 21.10. 18:00 0
So, 21.10. 17:30 0
So, 21.10. 17:00 0
So, 21.10. 16:30 0
Link zu dieser Seite / Seite empfehlen

Das Wetter in ...